Regional Weather Roundup
Issued by NWS Green Bay, WI

Home | Current Version | Previous Version | Graphics & Text | Print | Product List | Glossary Off
Versions: 1 2 3 4 5 6 7 8 9 10 11 12 13 14 15 16 17 18 19 20 21 22 23 24 25 26 27 28 29 30 31 32 33 34 35 36 37 38 39 40 41 42 43 44 45 46 47 48 49 50

805
ASUS43 KGRB 030700
RWRGRB

NORTH-CENTRAL AND NORTHEAST WISCONSIN REGIONAL WEATHER ROUNDUP
NATIONAL WEATHER SERVICE GREEN BAY WI
100 AM CST SAT DEC 03 2016

WIZ005-009-010>012-018-019-030800-
NORTH CENTRAL WISCONSIN

CITY           SKY/WX    TMP DP  RH WIND       PRES   REMARKS
IRONWOOD       CLOUDY    28  26  92 SW6       30.25S
MANITOWISH WTR NOT AVBL
ARBOR VITAE    NOT AVBL
EAGLE RIVER    NOT AVBL
LAND O LAKES   NOT AVBL
RHINELANDER    NOT AVBL
PHILLIPS       CLOUDY    25  23  90 CALM      30.25S
ANTIGO         NOT AVBL
TOMAHAWK       NOT AVBL
MERRILL        CLOUDY    29  24  79 W7        30.27R
$$

WIZ013-073-030800-
NORTHEAST WISCONSIN

CITY           SKY/WX    TMP DP  RH WIND       PRES   REMARKS
IRON MOUNTAIN  CLOUDY    32  27  81 W3        30.22R
MARINETTE      CLOUDY    34  28  79 VRB5      30.26S
OCONTO         CLOUDY    33  28  80 W6        30.27R
$$

WIZ017-030-035>037-045-030800-
CENTRAL WISCONSIN

CITY           SKY/WX    TMP DP  RH WIND       PRES   REMARKS
MEDFORD        NOT AVBL
WAUSAU         CLOUDY    29  22  75 W6        30.25F
MOSINEE        NOT AVBL
MARSHFIELD     CLOUDY    29  22  75 NW7       30.26S
WISC RAPIDS    CLOUDY    30  24  78 NW7       30.29F
STEVENS POINT  NOT AVBL
WAUPACA        NOT AVBL
SHAWANO        NOT AVBL
CLINTONVILLE   NOT AVBL
WAUTOMA        CLOUDY    31  24  75 W6        30.30S
$$

WIZ038-039-048-051-030800-
FOX VALLEY

CITY           SKY/WX    TMP DP  RH WIND       PRES   REMARKS
NWS GREEN BAY  NOT AVBL
APPLETON       NOT AVBL
OSHKOSH        CLOUDY    31  23  72 W7        30.28F
FOND DU LAC    CLOUDY    31  21  66 NW8       30.29F
$$

WIZ022-050-052-030800-
EAST CENTRAL WISCONSIN

CITY           SKY/WX    TMP DP  RH WIND       PRES   REMARKS
EPHRAIM        NOT AVBL
WASHINGTON ISL NOT AVBL
STURGEON BAY   CLOUDY    36  28  73 NW7       30.26R
MANITOWOC      NOT AVBL
SHEBOYGAN      CLOUDY    32  25  75 W12       30.28S
$$

LMZ563-521-522-541>543-030800-
LAKESHORE

STATION/POSITION TIME  TEMP    WIND        PRES    VSBY  WAVE
                       AIR SEA DIR/SP/G                  HT/PER
                 (UTC) (F)     (DEG/KT/KT) (MB)    (MI)  (FT/S)
SHEBOYGAN LKSHOR 0600   33     260/ 11/ 13 1025.9S
KEWAUNEE LKSHORE 0624   34     280/  7/ 11 1024.2
ALGOMA MARINA    0621          270/  7/  9   N/A
NORTHPORT PIER   0640   37     300/  8/ 12 1023.7S
SISTER BAY LKSHO 0608   37     330/ 14/ 15   N/A
CHAMBERS ISLAND  0640   36     290/  5/ 10 1023.7S
MENOMINEE LKSHOR 0624   35     250/  6/  8 1023.5
$$




USA.gov is the U.S. government's official web portal to all federal, state and local government web resources and services.